Tracking 20241 objects as of 25-Jan-2020
HD Live streaming from Space Station
objects crossing your sky now

COSMOS 1694

Track COSMOS 1694 now!
10-day predictions
COSMOS 1694 is classified as:


NORAD ID: 16142
Int'l Code: 1985-094E
Perigee: 1,406.3 km
Apogee: 1,423.6 km
Inclination: 82.6 °
Period: 114.0 minutes
Semi major axis: 7785 km
RCS: 0.2341 m2 (medium)
Launch date: October 9, 1985
Source: Commonwealth of Independent States (former USSR) (CIS)
Launch site: PLESETSK MISSILE AND SPACE COMPLEX (PKMTR)
aabbcc
Your satellite tracking list
Your tracking list is empty




NASA's NSSDC Master Catalog

Two Line Element Set (TLE):
1 16142U 85094E   20025.56170126 +.00000015 +00000-0 +22378-4 0  9999
2 16142 082.6112 309.5782 0011111 340.2521 194.2281 12.63677325581780
Source of the keplerian elements: AFSPC